Location: Wawayanda State Park
(41.1833°N, 74.4333°W)
Time: 11:40:42
(UTC-04:00)

Daily predictions for brighter satellites

Satellite Brightness Start Highest point End
(mag) Time Altitude Azimuth Time Altitude Azimuth Time Altitude Azimuth
SL-16 R/B 2.6 19:10:06 10° S 19:15:22 41° ESE 19:20:41 10° NE
Cosmos 1953 3.8 19:16:20 10° SE 19:18:50 16° E 19:21:19 10° NE
SAR-Lupe-1 4.0 19:16:37 10° SSE 19:20:08 63° ENE 19:23:40 10° N
Cosmos 1464 Rocket 4.4 19:15:29 10° SSE 19:21:15 40° E 19:26:58 10° NNE
Cosmos 1812 Rocket 4.1 19:20:32 10° SSW 19:24:48 62° W 19:29:08 10° N
Aureole 2 Rocket 3.3 19:21:24 10° S 19:25:34 44° ESE 19:29:43 10° NNE
Cosmos 1624 Rocket 4.0 19:22:36 10° NNW 19:27:50 71° ENE 19:33:00 10° SSE
Cosmos 1766 Rocket 4.4 19:25:28 10° NNE 19:29:18 29° ENE 19:33:05 10° SE
ATLAS CENTAUR R/B 3.6 19:27:30 10° SSW 19:32:08 58° ESE 19:46:13 10° NE
Meteor 1-22 Rocket 4.0 19:29:23 10° S 19:34:42 69° E 19:39:58 10° NNE
Cosmos 1805 4.3 19:32:58 10° SE 19:36:10 24° E 19:39:23 10° NE
Cosmos 2219 Rocket 3.8 19:32:11 10° SW 19:37:23 37° WNW 19:42:38 10° N
USA 215 3.2 19:31:43 10° NE 19:38:15 74° SE 19:44:46 10° SW
Cosmos 2233 Rocket 4.5 19:32:09 10° SSW 19:38:24 68° W 19:44:43 10° N
HJ-1C 3.6 19:35:45 10° SSE 19:38:59 49° ENE 19:42:16 10° N
H-2A R/B 4.2 19:36:55 13° ESE 19:39:14 20° ENE 19:42:09 10° NNE
Cosmos 1441 Rocket 4.4 19:36:05 10° NNW 19:39:40 44° W 19:43:14 10° SSW
Cosmos 2278 Rocket 3.0 19:35:19 10° NNW 19:40:50 54° WSW 19:46:18 10° S
Meteor 1-29 3.4 19:40:08 10° NNE 19:43:27 38° E 19:46:45 10° S
METEOR-M 4.1 19:38:54 10° SSE 19:44:13 72° ENE 19:49:34 10° N
Timation 1 Rocket 4.4 19:38:32 10° NNW 19:44:27 59° ENE 19:50:19 10° SE
Cosmos 2297 3.7 19:38:51 10° NNW 19:44:33 80° ENE 19:50:11 10° SSE
Meteor 1-28 Rocket 3.3 19:42:34 10° N 19:46:19 76° WNW 19:50:00 10° SSW
Meteor 1-24 Rocket 3.8 19:40:39 10° N 19:46:21 85° W 19:51:49 10° S
Cosmos 1378 3.0 19:44:05 10° N 19:47:50 80° E 19:51:33 10° S
Cosmos 1707 4.4 19:46:50 10° NNW 19:50:26 38° W 19:53:59 10° SSW
FENGYUN 3A 4.1 19:45:34 10° SE 19:50:33 41° ENE 19:55:36 10° N
SJ-6B 3.6 19:47:35 10° S 19:51:27 57° W 19:55:27 10° NNW
Cosmos 1076 Rocket 3.5 19:47:40 10° N 19:51:57 62° E 19:56:15 10° SSE
Cosmos 1544 4.2 19:49:33 10° SE 19:52:36 24° E 19:55:42 10° NE
Cosmos-2242 3.4 19:51:32 10° SSE 19:55:34 40° E 19:59:41 10° NNE
Cosmos 1452 Rocket 3.7 19:51:56 10° N 19:57:04 50° ENE 20:01:28 14° SE
Cosmos 1758 3.5 19:55:25 10° SSE 19:59:20 48° E 20:03:18 10° NNE
Helios 1B rocket 2.3 19:55:58 10° NNE 20:00:06 82° ESE 20:04:12 10° SSW
Cosmos 2369 Rocket 3.7 19:56:21 10° N 20:00:12 18° NE 20:01:47 16° ENE
Cosmos 192 4.2 19:56:01 10° SSW 20:00:56 75° ESE 20:05:55 10° NNE
Cosmos 1603 4.2 19:57:13 10° S 20:02:26 38° ESE 20:07:42 10° NE
SeaSat 1 3.1 19:58:49 10° NE 20:03:14 32° ESE 20:07:37 10° S
Cosmos 1408 Rocket 3.4 20:00:48 10° N 20:05:10 77° E 20:09:29 10° SSE
Resurs 01 Rocket 1.9 20:04:20 10° S 20:08:46 73° WSW 20:13:14 10° NNW
Cosmos 1943 Rocket 4.2 20:10:16 10° NNE 20:11:29 11° NE 20:12:21 10° NE
NOSS 3-2 (A) 3.5 20:05:42 10° SW 20:11:47 84° NW 20:18:27 10° NE
FengYun 1-2 T 4.2 20:06:21 10° SSE 20:11:53 87° ENE 20:17:24 10° NNW
Cosmos 2333 Rocket 4.4 20:07:49 10° WSW 20:12:42 28° NW 20:17:35 10° N
Resurs 1-3 3.6 20:08:25 10° SSE 20:12:49 85° WSW 20:17:14 10° NNW
CZ-4B DEB 2.7 20:15:35 32° SSE 20:16:56 73° ENE 20:20:12 10° N
Cosmos 1420 Rocket 4.3 20:16:04 10° N 20:21:10 46° ENE 20:23:00 33° ESE
Atlas Centaur 2 4.2 20:17:17 10° WSW 20:24:23 30° SSW 20:28:58 17° SSE
ATLAS CENTAUR R/B 3.5 20:21:06 10° WNW 20:24:29 24° WSW 20:27:38 10° SSW
Meteor 1-21 Rocket 4.1 20:20:24 10° N 20:26:00 80° E 20:31:13 12° SSE
ALOS 2.3 20:26:02 11° S 20:30:34 81° WSW 20:35:16 10° NNW
Cosmos 1743 Rocket 3.4 20:27:28 10° N 20:31:56 70° E 20:33:29 39° SSE
Cosmos 1674 3.2 20:29:13 10° N 20:32:23 44° NE 20:32:23 44° NE
Nadezhda 4 Rocket 3.9 20:26:46 10° N 20:33:05 77° E 20:38:48 12° SSE
Cosmos 1269 Rocket 4.0 20:28:22 10° S 20:33:31 57° ESE 20:38:41 10° NNE
CZ-4B DEB 4.4 20:34:16 74° ESE 20:34:25 76° ENE 20:38:02 10° N
Cosmos 1092 Rocket 3.9 20:31:52 10° N 20:38:02 61° E 20:40:56 32° SSE
GP-B 3.6 20:35:43 10° NNE 20:39:11 42° NE 20:39:11 42° NE
Cosmos 1048 Rocket 4.0 20:35:14 10° S 20:40:25 56° ESE 20:45:35 10° NNE
OAO 3 Rocket 3.8 20:41:30 10° WSW 20:45:59 40° S 20:46:04 40° S
NOSS 3-2 (C) 4.0 20:42:50 10° SW 20:48:51 61° NW 20:55:28 10° NNE
Envisat 3.6 20:50:02 38° NE 20:50:02 38° NE 20:54:04 10° N
CZ-4C R/B 4.5 20:46:36 10° W 20:50:54 22° NW 20:55:37 10° NNE
Cosmos 1634 Rocket 3.9 20:49:15 33° SSE 20:51:58 60° E 20:58:05 10° NNE
ASTEX 1 3.6 20:47:04 10° N 20:51:59 70° W 20:56:50 10° SSW
CENTAUR R/B 3.7 20:46:29 10° S 21:00:34 - NE 20:48:51 24° S
ATLAS 5 CENTAUR R/B 2.3 20:48:13 10° SW 20:52:57 59° NW 20:58:06 10° NNE
CZ-2D R/B 4.1 20:52:08 32° SSW 20:53:31 49° W 20:57:19 10° NNW
Cosmos 2026 Rocket 4.2 20:48:59 10° N 20:54:38 46° ENE 20:54:38 46° ENE
Cosmos 1953 4.0 20:51:20 10° SW 20:54:58 34° WNW 20:58:38 10° N
SL-16 R/B 4.1 20:54:39 10° WSW 20:59:35 30° NW 21:04:34 10° N
H-2A R/B 4.2 21:14:39 18° NNE 21:14:39 18° NNE 21:15:58 10° N
Cosmos 2195 Rocket 4.3 21:09:56 10° N 21:16:17 78° E 21:16:41 75° ESE
USA 215 4.4 21:14:59 10° NE 21:20:58 40° NNW 21:26:56 10° W
ERS-1 Rocket 3.6 21:34:40 52° NW 21:34:40 52° NW 21:38:38 10° NNW
SeaSat 1 3.9 21:36:16 10° N 21:40:43 35° NW 21:45:10 10° WSW
Cosmos 2369 Rocket 2.7 21:39:11 10° NNW 21:43:36 55° NW 21:43:36 55° NW
Cosmos 839 Rocket 4.2 21:42:06 10° NNW 21:49:20 77° WNW 21:49:20 77° WNW
Cosmos 1943 Rocket 3.6 21:50:53 10° NNW 21:53:53 31° N 21:53:53 31° N
